Zurück zum Katalog

COSMOS 970 DEB

AktivLEO
NORAD 10574·DEBRIS·🇷🇺 Russia

Gestartet Dec 21, 1977 von Baikonur Cosmodrome

Loading…

Nächste Überflüge (nächste 24 Stunden)

TLE

AktuellSource: Space-Track

Epoche: Sep 14, 2026, 11:42 UTC

1 10574U 77121R   26257.48780803  .00000151  00000-0  29132-3 0  9992
2 10574  65.5458  73.1171 0114803 144.5058 246.6059 13.60856812412982

Verfolge COSMOS 970 DEB in Echtzeit mit AllMySat

Download on the App Store